PEGASUS DEB, 39307

Orbit data source: Space-Track

PEGASUS DEB, 39307 is space debris in LEO originally from a launch on Thu, 19 May 1994 UTC launched from the Air Force Western Test Range (AFWTR). Debris objects in space refer to the collection of defunct objects orbiting the Earth. Examples of debris include non-operational satellites, rocket bodies, and fragments generated from explosions, collisions, or faulty payload assembly.

Loading next visibility...
Identifier
39307, 1994-029AES
Orbit
LEO
Country
Flag of USUS
Related business
Manufacturer
Unknown
Mission
Spacecraft
Bus & Motor
Unknown
Mass
Unknown
Launch date (UTC)
1994-05-19 (32 years ago)
Launch vehicle
Unknown
Launch site
Air Force Western Test Range (AFWTR)
Object type
Payload
Rocket body
Debris
Shape & HBR
Unknown shape, 0.1 m
Radar Cross Section
Small (<0.1 m²)

Expand to show TLE details & history
Last TLE update: 3 days ago

TLE from 3 days ago
0 PEGASUS DEB
1 39307U 94029AES 26060.48901255  .00056234  00000-0  19381-2 0  9998
2 39307  81.9400 341.7701 0079264 118.8639 242.0583 15.26751447767122
Epoch: 2026-03-01T11:44Z
TLE epoch observation values (Epoch: 2026-03-01T11:44:10.684Z)
Latitude
0.00001°
Longitude
6.42954°
Altitude
514.444 km
Speed
7.592 km/s
True Right ascension
22h 47m 04s
True Declination
0° 00' 00"
Sunlit
Object was in daylight at epoch
Visualization orbit readout
Latitude
Unknown
Longitude
Unknown
Altitude
Unknown
Speed
Unknown
Apparent Right ascension
Unknown
Apparent Declination
Unknown
Sunlit
N/A
Visualization observer readout
Local Sidereal Time
04:08:04
Azimuth
Unknown
Elevation
Unknown
Doppler factor
Unknown
Orbital elements
Apogee altitude
536.897 km
Perigee altitude
428.137 km
Semi-major axis
6,860.654 km
Eccentricity
0.00793
Inclination
81.94°
RAAN
341.7701°
Arg. of periapsis
118.8639°
True anomaly
241.25962°
Mean anomaly
242.0583°
Eccentric anomaly
241.65859°
Mean motion
3.8194 °/min
Orbital period
94.26 mins
BSTAR
0.0019381
Loading maneuver chart data...
Computing Atmospheric mass density...

Documentation

Showing up to 5 results
|